Regional Weather Roundup
Issued by NWS

Home | Current Version | Previous Version | Text Only | Print | Product List | Glossary Off
Versions: 1 2 3 4 5 6 7 8 9 10 11 12 13 14 15 16 17 18 19 20 21 22 23 24 25 26 27 28 29 30 31 32 33 34 35 36 37 38 39 40 41 42 43 44 45 46 47 48 49 50

000
ASUS45 KPSR 170210
RWRAZ

ARIZONA REGIONAL HOURLY WEATHER ROUNDUP
NATIONAL WEATHER SERVICE PHOENIX AZ
700 PM MST TUE SEP 16 2014

NOTE: FAIR INDICATES FEW OR NO CLOUDS BELOW 12,000 FEET WITH NO
SIGNIFICANT WEATHER AND/OR OBSTRUCTIONS TO VISIBILITY.

AZZ001>003-036-170300-
NORTHWEST ARIZONA

CITY           SKY/WX    TMP DP  RH WIND       PRES   REMARKS
BULLHEAD CITY  CLOUDY    81  70  69 SW7       29.84R
KINGMAN        CLOUDY    73  59  61 SE17      30.03R
$$

AZZ004>008-015-016-018-170300-
NORTH CENTRAL ARIZONA

CITY           SKY/WX    TMP DP  RH WIND       PRES   REMARKS
GRAND CANYON   CLOUDY    67  53  61 NE9       30.23R
PRESCOTT       CLOUDY    71  57  61 S5        30.10S
FLAGSTAFF      CLOUDY    61  57  87 CALM      30.25R
PAYSON         LGT RAIN  64  61  88 CALM      30.15F
PAGE           PTCLDY    83  42  23 SE5       30.01R
$$

AZZ009>014-017-170300-
NORTHEAST ARIZONA

CITY           SKY/WX    TMP DP  RH WIND       PRES   REMARKS
WINSLOW        CLOUDY    73  52  47 S15       30.12R
SAINT JOHNS    LGT RAIN  63  60  90 SE7       30.19R
WINDOW ROCK    CLOUDY    69  51  52 S6        30.24
SHOW LOW       LGT RAIN  57  57 100 S6        30.25S
$$

AZZ023-170300-
GREATER PHOENIX AREA

CITY           SKY/WX    TMP DP  RH WIND       PRES   REMARKS
PHOENIX        CLOUDY    84  64  50 NE14      29.82S
BUCKEYE          N/A     84  64  51 E9        29.83S
GLENDALE       MOCLDY    84  64  51 N8        29.85R
LUKE AFB       MOCLDY    83  66  57 NE8       29.83S
DEER VALLEY    CLOUDY    81  64  56 E8        29.85S
SCOTTSDALE     CLOUDY    83  62  49 VRB3      29.87S
MESA-FALCON    CLOUDY    79  66  65 N12       29.83F
MESA-GATEWAY   CLOUDY    82  66  57 NE9       29.86S
CHANDLER       CLOUDY    84  66  54 N14       29.83F
$$

AZZ027-028-170300-
SOUTHWEST MARICOPA COUNTY AND PINAL COUNTY

CITY           SKY/WX    TMP DP  RH WIND       PRES   REMARKS
CASA GRANDE    CLOUDY    82  63  51 E14       29.84S
$$

AZZ503-504-507>509-170300-
SOUTHEAST ARIZONA

CITY           SKY/WX    TMP DP  RH WIND       PRES   REMARKS
TUCSON         CLOUDY    80  66  62 E8        29.92R
DAVIS-MONTHAN  CLOUDY    79  66  65 NE10      29.90R
RYAN FIELD       N/A     81  68  65 E7        29.91R
NOGALES        CLOUDY    75  61  61 SE3       29.97R
SIERRA VISTA   MOCLDY    68  66  94 E6        30.08R
DOUGLAS        CLOUDY    72  64  76 E9        30.03R
SAFFORD        CLOUDY    70  67  90 CALM      30.02S
$$

AZZ020-021-025-026-031-170300-
SOUTHWEST ARIZONA

CITY           SKY/WX    TMP DP  RH WIND       PRES   REMARKS
YUMA           CLOUDY    92  60  34 E15       29.74R
$$

CAZ031-033-041-043-047-048-061-170300-
SOUTHERN CALIFORNIA

CITY           SKY/WX    TMP DP  RH WIND       PRES   REMARKS
DOWNTOWN L.A.  PTCLDY    84  57  39 VRB5      29.70S
L.A. AIRPORT   PTCLDY    80  60  50 W9        29.71F
SAN DIEGO      MOCLDY    89  65  44 CALM      29.67F
BURBANK        PTCLDY    92  53  26 SE12      29.72R
ONTARIO        PTCLDY    95  55  26 SW6       29.74S
RIVERSIDE      CLEAR     94  62  34 CALM      29.74S
PALM SPRINGS   PTCLDY    97  65  34 SE8       29.74R
EL CENTRO NAS  PTCLDY    95  64  35 S9        29.71R
IMPERIAL       MOCLDY    95  66  38 SE15      29.71R
BLYTHE         HVY RAIN  84  74  71 NE21G32   29.77R
NEEDLES        MOCLDY    82  69  64 E15       29.82R
$$

NVZ020-UTZ003-170300-
SOUTHERN NEVADA-UTAH

CITY           SKY/WX    TMP DP  RH WIND       PRES   REMARKS
LAS VEGAS      MOCLDY    96  54  24 S12       29.78R
SALT LAKE CITY PTCLDY    83  39  21 CALM      29.95S
$$

NMZ009-TXZ055-170300-
NEW MEXICO-WEST TEXAS

CITY           SKY/WX    TMP DP  RH WIND       PRES   REMARKS
ALBUQUERQUE    CLOUDY    65  55  70 SE8       30.23R
EL PASO        CLOUDY    76  63  64 N13       30.08R
$$


........................KEY........................
SKY/WX - SKY CONDITION/WEATHER
TMP    - TEMPERATURE IN FAHRENHEIT
DP     - DEW POINT IN FAHRENHEIT
RH     - RELATIVE HUMIDITY IN PERCENT
WIND   - DIRECTION AND SPEED IN MILES PER HOUR (MPH)
VRB    - VARIABLE WIND DIRECTION
PRES   - MEAN SEA LEVEL PRESSURE IN INCHES OF MERCURY
         F - FALLING PRESSURE   R - RISING PRESSURE
         S - STEADY PRESSURE
VSB    - VISIBILITY IN MILES
HX     - HEAT INDEX IN FAHRENHEIT
WCI    - WIND CHILL INDEX IN FAHRENHEIT
TC     - TEMPERATURE IN CELSIUS WHICH IS ALSO KNOWN AS
         TEMPERATURE IN CENTIGRADE
AFB    - AIR FORCE BASE
         LUKE AFB IS LUKE AIR FORCE BASE
         DAVIS-MONTHAN IS DAVIS-MONTHAN AIR FORCE BASE
NAS    - NAVAL AIR STATION
         EL CENTRO NAS IS EL CENTRO NAVAL AIR STATION
N/A    - NOT AVAILABLE



USA.gov is the U.S. government's official web portal to all federal, state and local government web resources and services.